{"data":{"norad_id":56337,"epoch":"2026-05-25T04:36:36.103392Z","epoch_age_seconds":68515,"freshness":"FRESH","line1":"1 56337U 23058W   26145.19208453 -.00037568  00000+0 -26000-2 0  9992","line2":"2 56337  97.4451 145.1197 0003213 122.0132 238.1408 15.05837187169630","mean_motion":15.05837187,"eccentricity":0.0003213,"inclination_deg":97.4451,"raan_deg":145.1197,"arg_perigee_deg":122.0132,"mean_anomaly_deg":238.1408,"bstar":-0.0026,"rev_number":16963,"period_min":95.627868167397,"perigee_km":546.71136706653,"apogee_km":551.16270484203,"semimajor_km":6927.0740359543,"source":"CELESTRAK","updated_at":"2026-05-25T13:38:18.003908Z"}}